| time (UTC) | temp F | wind direction | speed MPH | gust MPH | rain 1hr in | rain 24hr in | rain mn in | humidity % | barometer mb |
| 20260507132259 | 48 | 63 | 0.0 | 3.0 | 0.00 | 0.00 | 0.00 | 42 | 1013.3 |
| 20260507130807 | 47 | 216 | 1.0 | 3.0 | 0.00 | 0.00 | 0.00 | 41 | 1013.4 |
| 20260507125258 | 47 | 225 | 1.0 | 2.0 | 0.00 | 0.00 | 0.00 | 40 | 1013.2 |
| 20260507123756 | 47 | 225 | 0.0 | 1.0 | 0.00 | 0.00 | 0.00 | 40 | 1013.1 |
| 20260507122256 | 47 | 158 | 1.0 | 3.0 | 0.00 | 0.00 | 0.00 | 40 | 1013.2 |
| 20260507120756 | 47 | 170 | 0.0 | 1.0 | 0.00 | 0.00 | 0.00 | 38 | 1013.2 |
| 20260507115256 | 47 | 270 | 0.0 | 1.0 | 0.00 | 0.00 | 0.00 | 37 | 1013.3 |
| 20260507113801 | 47 | 270 | 0.0 | 1.0 | 0.00 | 0.00 | 0.00 | 37 | 1013.2 |
| 20260507112256 | 46 | 130 | 0.0 | 0.0 | 0.00 | 0.00 | 0.00 | 36 | 1013.0 |
| 20260507110756 | 47 | 111 | 1.0 | 2.0 | 0.00 | 0.00 | 0.00 | 36 | 1012.9 |
| 20260507105256 | 47 | 45 | 0.0 | 1.0 | 0.00 | 0.00 | 0.00 | 35 | 1012.9 |
| 20260507103751 | 47 | 120 | 0.0 | 1.0 | 0.00 | 0.00 | 0.00 | 35 | 1012.7 |
| 20260507102250 | 47 | 225 | 0.0 | 1.0 | 0.00 | 0.00 | 0.00 | 35 | 1012.7 |
| 20260507100750 | 47 | 225 | 0.0 | 1.0 | 0.00 | 0.00 | 0.00 | 35 | 1012.6 |
| 20260507095250 | 47 | 270 | 0.0 | 0.0 | 0.00 | 0.00 | 0.00 | 35 | 1012.7 |
| 20260507093750 | 47 | 279 | 2.0 | 2.0 | 0.00 | 0.00 | 0.00 | 34 | 1012.6 |
| 20260507092250 | 47 | 45 | 1.0 | 3.0 | 0.00 | 0.00 | 0.00 | 34 | 1012.3 |
| 20260507090746 | 47 | 7 | 0.0 | 2.0 | 0.00 | 0.00 | 0.00 | 33 | 1012.3 |
| 20260507085246 | 48 | 137 | 1.0 | 3.0 | 0.00 | 0.00 | 0.00 | 33 | 1012.4 |
| 20260507083750 | 48 | 0 | 1.0 | 3.0 | 0.00 | 0.00 | 0.00 | 33 | 1012.3 |
| 20260507082245 | 48 | 315 | 0.0 | 4.0 | 0.00 | 0.00 | 0.00 | 34 | 1012.0 |
| 20260507080745 | 48 | 31 | 2.0 | 4.0 | 0.00 | 0.00 | 0.00 | 34 | 1011.8 |
| 20260507075245 | 48 | 0 | 0.0 | 3.0 | 0.00 | 0.00 | 0.00 | 34 | 1011.6 |
| 20260507073742 | 48 | 29 | 2.0 | 3.0 | 0.00 | 0.00 | 0.00 | 34 | 1011.5 |
| 20260507072244 | 48 | 46 | 0.0 | 2.0 | 0.00 | 0.00 | 0.00 | 34 | 1011.6 |
| 20260507070749 | 47 | 0 | 0.0 | 1.0 | 0.00 | 0.00 | 0.00 | 34 | 1011.6 |
| 20260507065239 | 47 | 83 | 3.0 | 8.0 | 0.00 | 0.00 | 0.00 | 37 | 1010.9 |
| 20260507063739 | 47 | 91 | 4.0 | 7.0 | 0.00 | 0.00 | 0.00 | 33 | 1011.1 |
| 20260507062238 | 47 | 125 | 6.0 | 8.0 | 0.00 | 0.00 | 0.00 | 31 | 1010.8 |
| 20260507060738 | 47 | 111 | 6.0 | 8.0 | 0.00 | 0.00 | 0.00 | 31 | 1011.1 |
| 20260507055239 | 48 | 58 | 2.0 | 7.0 | 0.00 | 0.00 | 0.00 | 32 | 1011.6 |
| 20260507053744 | 48 | 50 | 4.0 | 9.0 | 0.00 | 0.00 | 0.00 | 31 | 1011.6 |
| 20260507052235 | 48 | 90 | 7.0 | 14.0 | 0.00 | 0.00 | 0.00 | 31 | 1011.3 |
| 20260507050738 | 50 | 78 | 5.0 | 8.0 | 0.00 | 0.00 | 0.00 | 32 | 1011.9 |
| 20260507045233 | 50 | 67 | 5.0 | 7.0 | 0.00 | 0.00 | 0.00 | 25 | 1012.0 |
| 20260507043733 | 50 | 110 | 8.0 | 8.0 | 0.00 | 0.00 | 0.00 | 25 | 1011.7 |
| 20260507042233 | 50 | 131 | 4.0 | 7.0 | 0.00 | 0.00 | 0.00 | 24 | 1011.5 |
| 20260507040738 | 51 | 106 | 4.0 | 9.0 | 0.00 | 0.00 | 0.00 | 24 | 1011.9 |
| 20260507035233 | 51 | 97 | 4.0 | 8.0 | 0.00 | 0.00 | 0.00 | 25 | 1011.4 |
| 20260507033733 | 51 | 66 | 7.0 | 13.0 | 0.00 | 0.00 | 0.00 | 25 | 1011.3 |
| 20260507032229 | 52 | 78 | 9.0 | 13.0 | 0.00 | 0.00 | 0.00 | 25 | 1010.4 |
| 20260507030728 | 52 | 81 | 12.0 | 13.0 | 0.00 | 0.00 | 0.00 | 25 | 1010.5 |
| 20260507025228 | 53 | 104 | 9.0 | 12.0 | 0.00 | 0.00 | 0.00 | 23 | 1010.6 |
| 20260507023733 | 53 | 86 | 10.0 | 13.0 | 0.00 | 0.00 | 0.00 | 22 | 1010.2 |
| 20260507022226 | 54 | 89 | 16.0 | 16.0 | 0.00 | 0.00 | 0.00 | 22 | 1009.9 |
| 20260507020728 | 56 | 82 | 8.0 | 13.0 | 0.00 | 0.00 | 0.00 | 20 | 1010.4 |
| 20260507015227 | 57 | 89 | 3.0 | 9.0 | 0.00 | 0.00 | 0.00 | 20 | 1009.9 |
| 20260507013727 | 58 | 72 | 8.0 | 10.0 | 0.00 | 0.00 | 0.00 | 19 | 1009.7 |
| 20260507012223 | 59 | 48 | 6.0 | 10.0 | 0.00 | 0.00 | 0.00 | 19 | 1009.7 |
| 20260507010727 | 59 | 49 | 7.0 | 10.0 | 0.00 | 0.00 | 0.00 | 19 | 1009.8 |
| 20260507005222 | 60 | 53 | 4.0 | 9.0 | 0.00 | 0.00 | 0.00 | 19 | 1009.8 |
| 20260507003722 | 60 | 65 | 3.0 | 10.0 | 0.00 | 0.00 | 0.00 | 18 | 1009.9 |
| 20260507002222 | 61 | 90 | 6.0 | 12.0 | 0.00 | 0.00 | 0.00 | 18 | 1009.9 |
| 20260507000722 | 62 | 45 | 8.0 | 8.0 | 0.00 | 0.00 | 0.00 | 18 | 1009.8 |
| 20260506235222 | 62 | 18 | 7.0 | 7.0 | 0.00 | 0.00 | 0.00 | 18 | 1009.9 |
| 20260506233727 | 63 | 60 | 6.0 | 9.0 | 0.00 | 0.00 | 0.00 | 17 | 1010.0 |
| 20260506232216 | 64 | 48 | 6.0 | 7.0 | 0.00 | 0.00 | 0.00 | 17 | 1010.1 |
| 20260506230716 | 64 | 108 | 3.0 | 5.0 | 0.00 | 0.00 | 0.00 | 17 | 1010.1 |
| 20260506225216 | 65 | 15 | 5.0 | 8.0 | 0.00 | 0.00 | 0.00 | 16 | 1010.4 |
| 20260506223716 | 65 | 91 | 1.0 | 7.0 | 0.00 | 0.00 | 0.00 | 15 | 1010.5 |
| 20260506222216 | 66 | 128 | 4.0 | 5.0 | 0.00 | 0.00 | 0.00 | 15 | 1010.6 |
| 20260506220721 | 67 | 140 | 3.0 | 6.0 | 0.00 | 0.00 | 0.00 | 13 | 1010.8 |
| 20260506215216 | 70 | 87 | 4.0 | 5.0 | 0.00 | 0.00 | 0.00 | 12 | 1010.9 |
| 20260506213716 | 70 | 0 | 0.0 | 3.0 | 0.00 | 0.00 | 0.00 | 13 | 1011.1 |
| 20260506212211 | 68 | 332 | 1.0 | 4.0 | 0.00 | 0.00 | 0.00 | 13 | 1011.5 |
| 20260506210711 | 69 | 177 | 2.0 | 6.0 | 0.00 | 0.00 | 0.00 | 12 | 1011.6 |
| 20260506205211 | 71 | 110 | 2.0 | 6.0 | 0.00 | 0.00 | 0.00 | 12 | 1011.8 |
| 20260506203715 | 70 | 217 | 2.0 | 5.0 | 0.00 | 0.00 | 0.00 | 13 | 1011.9 |
| 20260506202210 | 71 | 124 | 3.0 | 6.0 | 0.00 | 0.00 | 0.00 | 12 | 1012.1 |
| 20260506200710 | 71 | 107 | 1.0 | 6.0 | 0.00 | 0.00 | 0.00 | 12 | 1012.3 |
| 20260506195210 | 71 | 153 | 3.0 | 7.0 | 0.00 | 0.00 | 0.00 | 13 | 1012.6 |
| 20260506193705 | 71 | 301 | 0.0 | 4.0 | 0.00 | 0.00 | 0.00 | 14 | 1012.8 |
| 20260506192205 | 69 | 179 | 3.0 | 3.0 | 0.00 | 0.00 | 0.00 | 14 | 1013.1 |
| 20260506190710 | 68 | 108 | 0.0 | 6.0 | 0.00 | 0.00 | 0.00 | 15 | 1013.3 |
| 20260506185205 | 67 | 9 | 3.0 | 4.0 | 0.00 | 0.00 | 0.00 | 16 | 1013.6 |
| 20260506183705 | 65 | 230 | 3.0 | 5.0 | 0.00 | 0.00 | 0.00 | 16 | 1013.9 |
| 20260506182204 | 65 | 174 | 1.0 | 6.0 | 0.00 | 0.00 | 0.00 | 15 | 1014.2 |
| 20260506180704 | 65 | 136 | 4.0 | 6.0 | 0.00 | 0.00 | 0.00 | 15 | 1014.2 |
| 20260506175204 | 65 | 144 | 5.0 | 5.0 | 0.00 | 0.00 | 0.00 | 17 | 1014.5 |
| 20260506173704 | 65 | 65 | 2.0 | 5.0 | 0.00 | 0.00 | 0.00 | 16 | 1014.7 |
| 20260506172159 | 64 | 148 | 4.0 | 6.0 | 0.00 | 0.00 | 0.00 | 16 | 1015.0 |
| 20260506170659 | 64 | 156 | 5.0 | 5.0 | 0.00 | 0.00 | 0.00 | 18 | 1015.3 |
| 20260506165157 | 63 | 131 | 3.0 | 4.0 | 0.00 | 0.00 | 0.00 | 20 | 1015.5 |
| 20260506163659 | 61 | 120 | 4.0 | 7.0 | 0.00 | 0.00 | 0.00 | 21 | 1015.7 |
| 20260506162156 | 60 | 152 | 3.0 | 6.0 | 0.00 | 0.00 | 0.00 | 22 | 1016.0 |
| 20260506160704 | 58 | 72 | 0.0 | 3.0 | 0.00 | 0.00 | 0.00 | 24 | 1016.3 |
| 20260506155158 | 56 | 70 | 1.0 | 3.0 | 0.00 | 0.00 | 0.00 | 26 | 1016.8 |
| 20260506153653 | 54 | 50 | 2.0 | 4.0 | 0.00 | 0.00 | 0.00 | 26 | 1016.9 |
| 20260506152153 | 52 | 128 | 2.0 | 3.0 | 0.00 | 0.00 | 0.00 | 28 | 1017.2 |
| 20260506150652 | 51 | 45 | 1.0 | 2.0 | 0.00 | 0.00 | 0.00 | 31 | 1017.5 |
| 20260506145202 | 48 | 132 | 1.0 | 2.0 | 0.00 | 0.00 | 0.00 | 33 | 1017.7 |
| 20260506143657 | 44 | 90 | 0.0 | 2.0 | 0.00 | 0.00 | 0.00 | 37 | 1018.0 |
| 20260506142202 | 39 | 90 | 1.0 | 2.0 | 0.00 | 0.00 | 0.00 | 42 | 1018.4 |
| 20260506140651 | 36 | 131 | 0.0 | 2.0 | 0.00 | 0.00 | 0.00 | 44 | 1018.6 |
| 20260506135148 | 33 | 117 | 1.0 | 2.0 | 0.00 | 0.00 | 0.00 | 46 | 1018.9 |
| 20260506133651 | 32 | 132 | 1.0 | 2.0 | 0.00 | 0.00 | 0.00 | 48 | 1019.3 |